Weather History for KFDY - January, 2013

Change the Weather History Date:

Sunday, January 13, 2013

  Actual Average Record
Temperature  
Mean Temperature 48 °F -  
Max Temperature 63 °F 31 °F 63 °F (2013)
Min Temperature 33 °F 16 °F -13 °F (1977)
Degree Days  
Heating Degree Days 17    
Moisture  
Dew Point 43 °F    
Average Humidity 94    
Maximum Humidity 100    
Minimum Humidity 85    
Precipitation  
Precipitation 0.78 in - - ()
Sea Level Pressure  
Sea Level Pressure 29.85 in    
Wind  
Wind Speed 11 mph (WNW)    
Max Wind Speed 33 mph    
Max Gust Speed 52 mph    
Visibility 6 miles    
Events Fog , Rain    
Averages and records for this station are not official NWS values.
T = Trace of Precipitation, MM = Missing Value Source: NWS Daily Summary

Daily Weather History Graph

Daily Weather History Graph

Search for Another Location

Airport or City:

Trip Planner

Search our weather history database for the weather conditions in past years. The results will help you decide how hot, cold, wet, or windy it might be!

Date:

Astronomy

Jan. 13, 2013 Rise Set
Actual Time 7:58 AM EST 5:29 PM EST
Civil Twilight 7:27 AM EST 5:59 PM EST
Nautical Twilight 6:53 AM EST 6:33 PM EST
Astronomical Twilight 6:20 AM EST 7:06 PM EST
Moon 8:54 AM EST (1/13) 8:08 PM EST (1/13)
Length of Visible Light 10h 31m
Length of Day
9h 31m
Waxing Crescent, 5% of the Moon is Illuminated
Jan 13
Waxing Crescent
Jan 18
First Quarter
Jan 26
Full
Feb 3
Last Quarter
Feb 10
New

Hourly Weather History & Observations

Time (EST) Temp. Windchill Dew Point Humidity Pressure Visibility Wind Dir Wind Speed Gust Speed Precip Events Conditions
12:15 AM 57.2 °F - 57.2 °F 100% 29.74 in 5.0 mi SE 12.7 mph - 0.00 in   Overcast
12:40 AM 60.8 °F - 57.2 °F 88% 29.72 in 10.0 mi SSE 17.3 mph - 0.00 in   Overcast
1:38 AM 62.6 °F - 60.8 °F 94% 29.70 in 10.0 mi South 19.6 mph 27.6 mph N/A   Overcast
1:53 AM 63.0 °F - 60.1 °F 90% 29.68 in 10.0 mi South 23.0 mph 27.6 mph N/A   Overcast
2:53 AM 62.1 °F - 60.1 °F 93% 29.68 in 6.0 mi South 20.7 mph 28.8 mph 0.05 in Rain Rain
3:53 AM 61.0 °F - 59.0 °F 93% 29.65 in 10.0 mi SSW 11.5 mph - 0.04 in   Overcast
4:03 AM 60.8 °F - 59.0 °F 94% 29.67 in 6.0 mi WSW 12.7 mph - 0.01 in Rain Light Rain
4:17 AM 59.0 °F - 55.4 °F 88% 29.69 in 8.0 mi West 17.3 mph 20.7 mph 0.03 in Rain Light Rain
4:21 AM 55.4 °F - 53.6 °F 94% 29.73 in 2.5 mi WNW 33.4 mph 51.8 mph 0.10 in Rain Heavy Rain
4:37 AM 48.2 °F - 46.4 °F 93% 29.72 in 5.0 mi North 11.5 mph 21.9 mph 0.16 in Rain Rain
4:40 AM 48.2 °F - 46.4 °F 93% 29.72 in 6.0 mi NNW 11.5 mph - 0.16 in Rain Light Rain
4:53 AM 46.9 °F - 46.0 °F 97% 29.72 in 8.0 mi NNW 10.4 mph - 0.17 in Rain Light Rain
5:11 AM 46.4 °F 41.5 °F 44.6 °F 93% 29.74 in 6.0 mi NNW 10.4 mph - 0.03 in Rain Rain
5:40 AM 44.6 °F 43.1 °F 44.6 °F 100% 29.76 in 8.0 mi North 3.5 mph - 0.07 in Rain Light Rain
5:53 AM 45.0 °F 43.5 °F 44.1 °F 97% 29.75 in 7.0 mi East 3.5 mph - 0.09 in Rain Light Rain
6:23 AM 46.4 °F 42.4 °F 44.6 °F 93% 29.73 in 7.0 mi SE 8.1 mph - 0.03 in Rain Light Rain
6:36 AM 46.4 °F - 46.4 °F 100% 29.75 in 10.0 mi Calm Calm - 0.04 in Rain Light Rain
6:45 AM 46.4 °F - 46.4 °F 100% 29.77 in 9.0 mi Calm Calm - 0.04 in Rain Light Rain
6:53 AM 46.0 °F 38.5 °F 44.1 °F 93% 29.81 in 7.0 mi NW 19.6 mph 28.8 mph 0.05 in Rain Light Rain
7:08 AM 44.6 °F 40.2 °F 42.8 °F 93% 29.80 in 10.0 mi North 8.1 mph 20.7 mph 0.00 in Rain Light Rain
7:40 AM 44.6 °F - 42.8 °F 93% 29.84 in 9.0 mi Calm Calm - 0.00 in Rain Light Rain
7:53 AM 44.1 °F 41.5 °F 42.1 °F 93% 29.82 in 10.0 mi SE 4.6 mph - 0.00 in Rain Light Rain
8:15 AM 44.6 °F 40.7 °F 42.8 °F 93% 29.83 in 7.0 mi SSE 6.9 mph - 0.00 in Rain Light Rain
8:28 AM 44.6 °F 40.2 °F 42.8 °F 93% 29.86 in 9.0 mi WNW 8.1 mph - 0.00 in   Overcast
8:34 AM 44.6 °F 39.7 °F 42.8 °F 93% 29.87 in 8.0 mi WNW 9.2 mph - 0.00 in   Overcast
8:45 AM 44.6 °F 40.2 °F 42.8 °F 93% 29.86 in 8.0 mi NNW 8.1 mph - 0.00 in   Overcast
8:53 AM 45.0 °F 42.6 °F 43.0 °F 93% 29.86 in 8.0 mi North 4.6 mph - 0.00 in   Overcast
9:12 AM 44.6 °F - 42.8 °F 93% 29.85 in 8.0 mi Calm Calm - N/A   Overcast
9:35 AM 44.6 °F 43.1 °F 42.8 °F 93% 29.87 in 7.0 mi WNW 3.5 mph - N/A   Overcast
9:53 AM 45.0 °F - 44.1 °F 97% 29.87 in 5.0 mi Calm Calm - N/A   Overcast
10:01 AM 44.6 °F - 44.6 °F 100% 29.87 in 3.0 mi Calm Calm - N/A   Overcast
10:43 AM 44.6 °F 38.1 °F 42.8 °F 93% 29.88 in 3.0 mi WNW 13.8 mph - 0.01 in   Overcast
10:53 AM 44.1 °F 41.5 °F 43.0 °F 96% 29.86 in 4.0 mi West 4.6 mph - 0.01 in   Overcast
11:06 AM 44.6 °F 40.7 °F 42.8 °F 93% 29.87 in 5.0 mi West 6.9 mph - N/A   Overcast
11:31 AM 44.6 °F 38.8 °F 42.8 °F 93% 29.88 in 4.0 mi WNW 11.5 mph - N/A   Overcast
11:53 AM 43.0 °F 38.2 °F 42.1 °F 97% 29.88 in 3.0 mi West 8.1 mph - N/A   Overcast
12:10 PM 44.6 °F 41.4 °F 42.8 °F 93% 29.86 in 2.0 mi West 5.8 mph - N/A   Overcast
12:19 PM 42.8 °F 39.3 °F 42.8 °F 100% 29.85 in 1.2 mi West 5.8 mph - N/A   Overcast
12:43 PM 44.6 °F 40.2 °F 42.8 °F 93% 29.85 in 2.5 mi West 8.1 mph - N/A   Overcast
12:53 PM 44.1 °F 38.6 °F 43.0 °F 96% 29.86 in 3.0 mi West 10.4 mph - N/A   Overcast
1:11 PM 44.6 °F 38.8 °F 42.8 °F 93% 29.86 in 2.0 mi West 11.5 mph - N/A   Overcast
1:24 PM 42.8 °F 37.0 °F 42.8 °F 100% 29.87 in 1.8 mi West 10.4 mph - N/A   Overcast
1:46 PM 42.8 °F 37.5 °F 42.8 °F 100% 29.85 in 0.8 mi WNW 9.2 mph - N/A   Overcast
1:53 PM 42.1 °F 37.7 °F 41.0 °F 96% 29.85 in 0.5 mi WNW 6.9 mph - N/A Fog Fog
2:23 PM 42.8 °F 39.3 °F 41.0 °F 93% 29.84 in 0.2 mi West 5.8 mph - N/A Fog Fog
2:37 PM 42.8 °F 41.1 °F 41.0 °F 93% 29.83 in 0.5 mi WNW 3.5 mph - N/A Fog Fog
2:53 PM 42.1 °F - 41.0 °F 96% 29.83 in 0.8 mi Calm Calm - N/A   Overcast
3:53 PM 42.1 °F 38.4 °F 41.0 °F 96% 29.87 in 0.8 mi WNW 5.8 mph - 0.00 in Rain Light Rain
4:06 PM 41.0 °F 36.4 °F 41.0 °F 100% 29.88 in 1.0 mi NW 6.9 mph - 0.02 in Rain Rain
4:26 PM 41.0 °F 34.7 °F 39.2 °F 93% 29.89 in 2.0 mi WNW 10.4 mph - 0.04 in Rain Light Rain
4:50 PM 41.0 °F 34.7 °F 39.2 °F 93% 29.91 in 3.0 mi WNW 10.4 mph - 0.10 in Rain Rain
4:53 PM 41.0 °F 35.2 °F 39.0 °F 93% 29.92 in 3.0 mi WNW 9.2 mph - 0.10 in Rain Light Rain
5:21 PM 39.2 °F 32.5 °F 39.2 °F 100% 29.92 in 6.0 mi NW 10.4 mph - 0.03 in Rain Light Rain
5:39 PM 39.2 °F 32.5 °F 37.4 °F 93% 29.91 in 5.0 mi NW 10.4 mph - 0.07 in Rain Rain
5:53 PM 39.9 °F 35.1 °F 39.0 °F 97% 29.92 in 6.0 mi NW 6.9 mph - 0.09 in Rain Light Rain
5:58 PM 39.2 °F 33.6 °F 37.4 °F 93% 29.92 in 6.0 mi NW 8.1 mph - 0.01 in Rain Light Rain
6:36 PM 39.2 °F 34.2 °F 39.2 °F 100% 29.91 in 10.0 mi NNW 6.9 mph - 0.02 in Rain Light Rain
6:48 PM 39.2 °F 33.6 °F 37.4 °F 93% 29.90 in 10.0 mi NNW 8.1 mph - 0.02 in   Overcast
6:53 PM 39.9 °F 35.1 °F 37.9 °F 93% 29.90 in 10.0 mi NW 6.9 mph - 0.02 in   Overcast
7:53 PM 39.0 °F 32.3 °F 37.0 °F 93% 29.94 in 5.0 mi NW 10.4 mph - 0.09 in Rain Rain
8:53 PM 37.9 °F 30.5 °F 36.0 °F 93% 29.96 in 5.0 mi WNW 11.5 mph - 0.05 in Rain Light Rain
9:53 PM 36.0 °F 26.7 °F 34.0 °F 93% 30.01 in 4.0 mi WNW 15.0 mph 25.3 mph 0.01 in   Overcast
10:20 PM 35.6 °F 27.5 °F 33.8 °F 93% 30.02 in 5.0 mi WNW 11.5 mph - 0.01 in Rain Light Rain
10:53 PM 35.1 °F 25.5 °F 33.1 °F 92% 30.04 in 10.0 mi West 15.0 mph 21.9 mph 0.01 in   Overcast
11:13 PM 35.6 °F 25.5 °F 32.0 °F 87% 30.05 in 10.0 mi West 17.3 mph - N/A   Overcast
11:35 PM 33.8 °F 23.9 °F 30.2 °F 87% 30.06 in 10.0 mi West 15.0 mph 23.0 mph N/A   Overcast
11:53 PM 34.0 °F 23.4 °F 30.0 °F 85% 30.07 in 10.0 mi West 17.3 mph 23.0 mph N/A   Overcast